Find Starlink 5525

NORAD ID: 57218 Int'l Des: 2023-094 Owner: SPXS Country: US Constellation: starlink operational
LEOCIRCULAR

現在のビュー

3D地球を読み込み中...

About Starlink 5525

Starlink 5525 (NORAD 57218) is a starlink constellation satellite (v1.5) launched Jul 7, 2023 by SPXS of US. It operates in LEO, CIRCULAR orbit with a mass of 305.00 kg.

Starlink 5525について

説明を読み込み中...

次回通過

Passes for default location (London). Set your location on the main map for personalized predictions.

高度履歴

Loading altitude history...

軌道要素

1 57218U 23094A 26165.37511000 -.00000160 00000-0 37105-5 0 9997
2 57218 43.0048 204.5819 0002086 274.8181 85.2433 15.27576849161906
Epoch: Jun 14, 2026 • Age: 51 hours

現在のステータス

高度 495.1 km
速度 7.62 km/s
衛星直下点 -43.16°S, 11.29°E
打ち上げ日 Jul 7, 2023
運用期間 2.9 years
タイプ internet

技術仕様

分類 Payload
質量 305.00 kg
乾燥質量 290.00 kg
総質量 305.00 kg
長さ 0.20 m
直径 2.80 m
スパン 9.00 m
形状 Box + pan
製造者 SPXS
バスタイプ Starlink
フェーズステータス In Orbit
所有者/国 SPXS/US

Most Searched